Starlink 2123

operational
NORAD ID: 47401 Int'l Des: 2021-005 Owner: SPXS Country: US Constellation: starlink
LEOCIRCULARSTARLINK_TYPE

关于 Starlink 2123

正在加载描述...

实时位置

正在加载3D地球...

即将过境

高度历史

Altitude vs Time

uPlot chart will show altitude changes over time

两行轨道根数

1 47401U 21005BE 26062.36281119 .00002431 00000-0 18196-3 0 9999
2 47401 53.0561 60.0218 0001363 88.9898 271.1247 15.06410660282519
Epoch: Mar 3, 2026 • Age: 28 hours

当前状态

高度 551.9 km
速度 7.59 km/s
星下点 49.42°N, 50.83°W
发射日期 Jan 20, 2021
运行时间 5.1 years
类型 internet

技术详情

分类 Payload
质量 260.00 kg
干质量 248.00 kg
总质量 260.00 kg
长度 0.20 m
直径 2.80 m
跨度 9.00 m
形状 Box + pan
制造商 SPXS
平台类型 Starlink
阶段状态 In Orbit
所有者/国家 SPXS/US

大型星座

Loading constellations...